Flag for Spain Weather past 2 weeks in Murcia, Spain

Now
59 °F

Clear.


Feels Like: 59 °F
Forecast: 51 / 81 °F
Wind: 1 mph from North

Location: Alicante / El Altet

Current Time: Apr 28, 2015 at 2:36:27 AM

Latest Report: Apr 28, 2015 at 2:00 AM


Visibility: 10 mi

Pressure: 29.98 "Hg

Humidity: 55%

Dew point: 43 °F

Location of MurciaLocation

Historic Weather in Murcia — Graph

°F

Murcia temperature yesterday

Maximum temperature yesterday: 75 °F (at 3:30 PM)
Minimum temperature yesterday: 59 °F (at 4:30 AM)
Average temperature yesterday: 67 °F

Past Weeks' High & Low Weather Summary

 TemperatureHumidityPressure
High79 °F (Apr 26, 2:00 PM)100% (Apr 16, 8:30 AM)30.36 "Hg (Apr 16, 8:30 AM)
Low50 °F (Apr 18, 6:30 AM)21% (Apr 19, 3:30 PM)29.65 "Hg (Apr 26, 5:00 PM)
Average64 °F65%30.04 "Hg
* Reported Apr 13 1:00 AM — Apr 28 1:30 AM, Murcia, Weather by CustomWeather, © 2015

Note: Actual official high and low records may vary slightly from our data, if they occured in-between our weather recording intervals... More about our weather records

Advertising

Murcia weather history for previous 24 hours

 ConditionsComfort  
Time TempWeatherWind HumidityBarometerVisibility
1:30 AM
Tue, Apr 28
61 °FClear.1 mph52%29.98 "Hg10 mi
1:00 AM63 °FPassing clouds.8 mph49%29.98 "HgN/A
12:30 AM64 °FClear.8 mph46%29.98 "Hg10 mi
12:00 AM63 °FClear.8 mph49%29.98 "Hg10 mi
11:30 PM
Mon, Apr 27
64 °FClear.2 mph43%29.98 "Hg10 mi
11:00 PM66 °FClear.8 mph40%29.95 "Hg10 mi
10:30 PM66 °FPassing clouds.12 mph37%29.95 "HgN/A
10:00 PM68 °FPassing clouds.12 mph35%29.92 "HgN/A
9:30 PM68 °FPassing clouds.8 mph35%29.92 "HgN/A
9:00 PM68 °FPassing clouds.6 mph35%29.92 "HgN/A
8:30 PM72 °FPassing clouds.14 mph31%29.89 "HgN/A
8:00 PM72 °FPassing clouds.16 mph31%29.89 "HgN/A
7:30 PM72 °FPassing clouds.18 mph31%29.89 "HgN/A
7:00 PM73 °FScattered clouds.18 mph29%29.89 "HgN/A
6:30 PM73 °FScattered clouds.17 mph27%29.86 "HgN/A
6:00 PM75 °FScattered clouds.16 mph25%29.86 "HgN/A
5:30 PM73 °FScattered clouds.14 mph29%29.86 "HgN/A
5:00 PM73 °FScattered clouds.14 mph27%29.89 "HgN/A
4:30 PM73 °FScattered clouds.20 mph29%29.89 "HgN/A
4:00 PM75 °FScattered clouds.20 mph25%29.89 "HgN/A
3:30 PM75 °FScattered clouds.20 mph25%29.89 "HgN/A
3:00 PM73 °FScattered clouds.20 mph29%29.89 "HgN/A
2:30 PM73 °FScattered clouds.23 mph27%29.86 "HgN/A
2:00 PM73 °FScattered clouds.23 mph29%29.86 "HgN/A
1:30 PM73 °FScattered clouds.25 mph29%29.89 "HgN/A
1:00 PM73 °FScattered clouds.20 mph29%29.89 "HgN/A
12:30 PM72 °FScattered clouds.22 mph33%29.89 "HgN/A
12:00 PM70 °FScattered clouds.21 mph35%29.89 "HgN/A
11:30 AM70 °FScattered clouds.22 mph35%29.89 "HgN/A
11:00 AM68 °FPassing clouds.21 mph40%29.89 "HgN/A
10:30 AM68 °FPassing clouds.16 mph40%29.86 "HgN/A
10:00 AM66 °FPassing clouds.22 mph46%29.86 "HgN/A
9:30 AM64 °FPassing clouds.17 mph49%29.83 "HgN/A
9:00 AM64 °FPassing clouds.15 mph49%29.83 "HgN/A
8:30 AM63 °FPassing clouds.15 mph52%29.83 "HgN/A
8:00 AM61 °FPassing clouds.12 mph55%29.83 "HgN/A
7:30 AM61 °FPassing clouds.16 mph55%29.83 "HgN/A
7:00 AM61 °FPassing clouds.14 mph55%29.80 "HgN/A
6:30 AM63 °FPassing clouds.15 mph52%29.80 "HgN/A
6:00 AM61 °FPassing clouds.10 mph59%29.80 "HgN/A
5:30 AM61 °FPassing clouds.5 mph63%29.80 "HgN/A
5:00 AM59 °FPassing clouds.2 mph72%29.80 "HgN/A
4:30 AM59 °FPassing clouds.1 mph68%29.80 "HgN/A
4:00 AM61 °FPassing clouds.5 mph63%29.77 "HgN/A
3:30 AM61 °FPassing clouds.5 mph63%29.77 "HgN/A
3:00 AM63 °FPassing clouds.8 mph59%29.77 "HgN/A
2:30 AM61 °FPassing clouds.7 mph68%29.77 "HgN/A
2:00 AM63 °FPassing clouds.10 mph59%29.80 "HgN/A
Weather by CustomWeather, © 2015

See weather overviewHow to use our weather pages